Regional Weather Roundup
Issued by NWS

Home | Current Version | Previous Version | Graphics & Text | Print | Product List | Glossary On
Versions: 1 2 3 4 5 6 7 8 9 10 11 12 13 14 15 16 17 18 19 20 21 22 23 24 25 26 27 28 29 30 31 32 33 34 35 36 37 38 39 40 41 42 43 44 45 46 47 48 49 50
000
ASUS43 KFSD 240410
RWRSD

WEATHER ROUNDUP FOR SOUTH DAKOTA
NATIONAL WEATHER SERVICE SIOUX FALLS SD
1100 PM CDT SUN JUL 23 2017

NOTE: "FAIR" INDICATES FEW OR NO CLOUDS BELOW 12,000 FEET WITH NO
SIGNIFICANT WEATHER AND/OR OBSTRUCTIONS TO VISIBILITY.


SDZ001>005-009-010-012>017-240500-
NORTHWEST AND NORTH CENTRAL SOUTH DAKOTA

CITY           SKY/WX    TMP DP  RH WIND       PRES   REMARKS
BUFFALO          N/A     75  50  41 E15       29.88S
FAITH            N/A     75  52  44 SE16      29.97S
MOBRIDGE       CLEAR     72  59  63 SE13      29.95F
$$

SDZ012>016-024>037-041>051-057-063-072>074-240500-
SOUTHWEST AND SOUTH CENTRAL SOUTH DAKOTA

CITY           SKY/WX    TMP DP  RH WIND       PRES   REMARKS
RAPID CTY ARPT PTCLDY    75  47  36 SE10      29.97R
PIERRE         CLEAR     70  55  59 E8        29.97R
CUSTER         CLOUDY    73  47  39 E10G16    30.14R
ELLSWORTH AFB  PTCLDY    77  48  35 SE10      29.97R
PHILIP         CLEAR     73  50  44 E9        29.96R
PINE RIDGE     CLEAR     81  52  36 SE17G25   29.98R
SPEARFISH      FAIR      77  46  33 E17       29.98F
WINNER         FAIR      73  57  57 SE12      30.00R
$$

SDZ004>011-016>023-039-040-240500-
NORTHEAST SOUTH DAKOTA

CITY           SKY/WX    TMP DP  RH WIND       PRES   REMARKS
ABERDEEN       CLEAR     68  60  75 E8        30.00S
WATERTOWN      CLEAR     65  59  81 CALM      30.03R
BROOKINGS      CLEAR     66  58  75 NE3       30.04R
SISSETON         N/A     61  59  93 SW3       30.01S
$$

SDZ017-020-022-023-036>040-048>070-240500-
SOUTHEAST SOUTH DAKOTA

CITY           SKY/WX    TMP DP  RH WIND       PRES   REMARKS
SIOUX FALLS    CLEAR     65  60  84 E6        30.02R
HURON          CLEAR     68  62  81 E5        30.00S
CHAMBERLAIN    CLEAR     70  60  69 E6        30.00R
MITCHELL       CLEAR     67  61  81 E7        30.00S
$$

ABBREVIATIONS USED IN REMARKS
   TC - TEMPERATURE IN CELSIUS
  WCI - WIND CHILL INDEX
   HX - HEAT INDEX
  VSB - VISIBILITY





USA.gov is the U.S. government's official web portal to all federal, state and local government web resources and services.